Regional Weather Roundup
Issued by NWS

Home | Current Version | Previous Version | Graphics & Text | Print | Product List | Glossary On
Versions: 1 2 3 4 5 6 7 8 9 10 11 12 13 14 15 16 17 18 19 20 21 22 23 24 25 26 27 28 29 30 31 32 33 34 35 36 37 38 39 40 41 42 43 44 45 46 47 48 49 50
548
ASUS45 KCYS 240510
RWRWY

WYOMING REGIONAL WEATHER ROUNDUP
NATIONAL WEATHER SERVICE CHEYENNE WY
1000 PM MST THU FEB 23 2017

NOTE:  "FAIR" INDICATES FEW OR NO CLOUDS BELOW 12,000 FEET
WITH NO SIGNIFICANT WEATHER AND/OR OBSTRUCTIONS TO VISIBILITY.

WYZ001-240600-
YELLOWSTONE NATIONAL PARK

CITY           SKY/WX    TMP DP  RH WIND       PRES   REMARKS
LK YELLOWSTONE   N/A     10   6  84 CALM      29.75R
W YELLOWSTONE  NOT AVBL

$$
WYZ002>013-054>058-071-098>099-240600-
NORTHERN WYOMING

CITY           SKY/WX    TMP DP  RH WIND       PRES   REMARKS
JACKSON        CLOUDY    21  19  93 NW6       29.75R WCI  14
CODY           FLURRIES  21  16  81 NW5       29.90S WCI  15
GREYBULL       LGT SNOW  27  24  89 NW9       29.89S FOG     WCI  18
WORLAND        LGT SNOW  24  23  96 NW5       29.90S FOG     WCI  18
SHERIDAN       LGT SNOW  24  22  91 SE10      29.96S FOG     WCI  14
BUFFALO        LGT SNOW  22  18  85 NW7       29.93R FOG     WCI  13
GILLETTE         N/A     24  18  77 E8        29.93S WCI  15
HULETT         LGT SNOW  27  23  86 MISG      29.96R
NEWCASTLE      LGT SNOW  23  23 100 NW6       29.94R WCI  16

$$
WYZ014>020-022>026-101>103-240600-
CENTRAL WYOMING

CITY           SKY/WX    TMP DP  RH WIND       PRES   REMARKS
BIG PINEY      LGT SNOW  17  15  92 SW9       29.75R WCI   6
PINEDALE       FLURRIES  19  14  79 CALM      29.75S
DUBOIS         LGT SNOW  16  14  93 SE7       29.75S WCI   6
LANDER         LGT SNOW  20  18  92 N6        29.84R VSB 1   WCI  12
RIVERTON       LGT SNOW  19  18  95 E5        29.85S VSB 1   WCI  12
CASPER         CLOUDY    17  14  88 E12       29.85S WCI   4
DOUGLAS        LGT SNOW  18  16  92 S3        29.90R FOG

$$
WYZ021-027>030-104>119-240600-
SOUTHERN WYOMING

CITY           SKY/WX    TMP DP  RH WIND       PRES   REMARKS
EVANSTON       LGT SNOW  18  14  84 SW9       29.76S VSB 1   WCI   7
FORT BRIDGER   LGT SNOW  18  18 100 W8        29.79S WCI   8
ROCK SPRINGS   LGT SNOW  18  12  77 NE12      29.75S WCI   5
DIXON            N/A     21  14  73 SW13G20   29.73S WCI   9
RAWLINS        LGT SNOW  13   8  81 NE23G29   29.69F WCI  -6
SARATOGA       CLOUDY    19  10  68 SE14G20   29.69S WCI   6
LARAMIE        CLOUDY    11   5  77 E6        29.73F WCI   1
CHEYENNE       FLURRIES  15  10  80 N12       29.80R WCI   2
TORRINGTON     LGT SNOW  21  18  88 NW6       29.89S FOG     WCI  13
PINE BLUFFS    CLOUDY    19  18  93 N16G22    29.84S WCI   5

$$




USA.gov is the U.S. government's official web portal to all federal, state and local government web resources and services.